Wind_Speed
5 3 3 5 11 19 24 29 24 23 25 27 22 28 24 19 18 19 17 14 14 19 22 24 29 37 37 35 36 40 39 40 41 39 38 41 42 40 36 31 31 30 29
4 3 2 4 15 18 23 30 25 22 27 28 24 21 24 23 22 19 17 16 13 14 14 17 18 19 21 23 26 30 32 30 31 36 37 29 25 23 25 23 24 27 30
2 4 2 6 12 17 22 26 26 26 28 30 27 19 20 21 17 17 16 13 13 12 12 12 10 12 13 14 15 12 9 10 9 11 12 18 15 15 18 19 20 22 25
1 4 3 4 10 15 20 25 25 28 26 30 31 25 17 22 23 20 19 16 15 12 12 15 13 14 12 11 9 4 5 5 7 7 12 14 13 12 13 13 17 19 23
1 3 5 1 7 12 16 23 27 29 26 30 31 32 21 19 21 18 22 23 24 23 20 16 12 10 9 8 8 9 9 8 5 11 10 9 8 9 11 13 16 19 22
5 1 5 1 6 9 14 18 24 29 27 28 29 32 33 25 19 19 27 27 27 24 24 23 21 18 15 12 11 11 11 11 12 9 3 5 6 7 9 12 14 18 20
7 4 4 4 4 8 11 15 20 27 28 29 29 31 32 35 36 32 28 26 27 29 29 28 25 21 17 13 12 11 11 10 8 5 1 2 3 6 8 10 13 15 18
9 6 4 5 5 6 8 12 16 24 29 28 27 28 30 32 32 30 28 28 29 31 32 31 30 25 19 14 11 9 12 11 8 7 7 8 7 7 6 10 15 13 17
10 8 5 6 7 8 6 7 12 17 20 25 29 26 25 27 27 28 29 29 31 34 40 40 39 39 35 27 17 14 14 14 18 17 13 10 9 8 5 11 16 14 17
13 11 9 9 7 11 4 5 9 15 17 22 25 29 28 26 26 27 29 30 37 36 36 34 34 37 33 36 36 33 31 31 27 26 25 22 18 17 16 17 16 15 18
14 13 12 13 10 14 6 11 6 10 13 19 21 24 24 24 25 26 32 32 34 31 28 28 30 34 33 31 29 26 22 18 19 19 22 25 30 28 23 20 19 16 18
15 14 15 16 15 15 9 11 8 10 11 11 16 21 24 25 25 25 22 32 28 26 25 24 27 29 30 26 28 25 22 24 26 29 25 28 27 28 27 28 25 22 18
16 13 14 18 20 19 17 16 10 10 12 10 11 15 18 22 22 21 22 23 22 21 22 21 20 23 25 25 27 29 25 24 25 26 24 25 28 29 26 28 26 26 23
20 15 11 20 24 24 19 18 17 14 14 10 9 12 15 13 12 15 13 14 14 15 17 21 21 17 20 20 23 23 22 19 21 25 21 26 28 30 30 24 26 28 29
20 18 15 19 25 29 27 24 21 16 15 11 9 10 7 10 9 7 8 10 11 12 12 14 12 14 17 20 22 21 19 19 20 22 23 22 24 26 29 28 23 26 28
15 21 21 15 27 32 33 30 23 19 17 13 12 9 8 5 4 5 6 8 8 7 8 9 13 13 12 18 21 20 20 18 20 22 21 19 21 21 23 27 26 23 23
12 11 18 22 26 31 36 34 28 18 14 15 12 6 7 3 6 4 2 5 5 6 6 7 8 12 14 12 15 16 19 19 21 21 19 21 18 18 19 22 23 22 22
10 8 12 21 27 34 36 38 33 26 13 20 5 7 7 7 9 9 8 4 3 2 1 1 4 4 6 5 9 12 13 17 20 19 18 16 18 20 21 21 19 19 20
9 14 22 27 30 36 37 38 38 36 28 23 13 11 11 16 12 8 9 10 8 4 4 1 2 2 9 5 4 6 11 16 20 18 18 19 17 19 21 21 18 16 15
27 20 19 19 29 32 34 37 39 39 33 25 18 18 20 19 14 15 14 14 11 9 9 2 5 6 7 6 7 13 12 15 14 17 18 16 19 20 21 22 20 15 14
26 23 15 16 25 30 34 38 39 40 39 34 29 29 10 27 20 25 24 21 16 16 14 13 11 12 12 13 12 9 13 17 10 19 19 18 16 21 18 19 21 20 17
23 21 10 11 20 27 31 34 38 39 41 39 37 37 35 29 35 31 27 22 19 25 20 20 19 21 19 15 11 11 12 14 11 19 18 19 19 19 13 16 19 20 21
14 7 10 11 7 19 30 31 36 37 38 39 38 41 42 42 39 38 34 30 27 30 26 27 24 24 27 23 19 20 18 17 18 17 18 22 21 20 13 9 7 17 18
29 23 20 11 8 6 15 26 32 33 36 36 38 20 50 48 45 42 39 36 31 29 30 31 30 29 29 29 26 24 24 23 23 20 15 14 17 23 12 12 19 21 21
25 23 23 17 10 5 11 16 21 25 25 33 38 49 28 42 51 47 44 43 41 37 33 31 32 34 33 33 31 27 25 24 23 22 22 17 15 15 17 13 11 21 26
22 20 21 18 12 10 6 8 15 19 24 25 32 42 45 48 49 47 46 46 47 44 38 34 36 37 38 38 36 35 33 28 26 28 27 25 23 16 30 22 18 22 22
Wind_Direction
90 151 101 28 354 357 359 8 12 11 21 24 41 53 68 96 116 128 135 149 174 196 205 209 213 223 230 238 243 250 256 260 267 264 260 269 280 284 289 290 296 301 301
123 162 117 36 7 2 8 20 19 23 29 34 38 66 72 87 96 107 119 116 128 149 175 197 205 208 216 226 237 249 259 267 269 263 265 269 274 277 278 289 299 304 300
104 178 137 50 11 7 7 20 23 30 39 45 44 62 89 89 100 100 114 116 112 127 128 142 161 199 212 223 231 242 261 257 251 252 258 273 275 281 296 302 305 305 307
344 191 193 53 10 7 10 22 26 33 46 51 51 56 93 94 92 94 108 111 119 131 125 130 137 154 177 203 218 210 221 236 250 283 274 285 294 301 298 298 305 311 318
326 181 207 271 1 8 20 32 37 39 49 56 56 56 76 116 112 112 100 105 109 109 111 122 141 155 175 192 203 190 183 185 217 274 272 286 298 312 305 300 314 318 322
325 194 199 212 31 17 33 38 36 40 55 59 60 62 67 89 108 108 106 103 97 96 104 109 113 118 125 131 135 132 135 149 145 217 283 306 306 320 312 320 329 330 335
312 312 230 197 90 38 49 43 33 43 53 63 69 72 76 85 94 98 100 96 95 98 101 101 98 103 110 116 118 121 128 133 142 152 175 39 354 335 343 354 346 346 360
285 291 270 192 137 84 76 57 50 50 50 55 68 81 85 92 95 98 99 102 103 98 94 93 90 90 92 101 113 125 120 93 96 119 99 65 41 13 8 18 11 15 16
264 259 257 217 165 108 88 53 64 51 45 56 68 78 88 90 91 94 98 100 100 99 98 91 83 80 81 83 98 103 98 91 90 88 76 58 35 31 42 32 30 28 26
251 247 232 221 182 126 79 101 78 76 56 70 70 75 81 87 90 96 97 98 106 102 97 88 83 75 79 85 83 85 94 86 81 80 70 62 57 61 56 40 33 37 35
251 239 237 220 191 181 113 138 110 88 80 79 72 77 83 82 87 89 102 104 103 100 90 84 78 71 77 77 79 77 84 77 69 61 60 61 53 49 45 37 35 43 46
250 236 228 226 199 196 173 152 154 108 88 91 93 83 79 84 87 92 97 108 103 97 85 82 76 71 71 68 67 63 70 74 65 57 60 53 57 50 45 41 39 37 38
225 222 222 219 206 196 188 178 169 143 121 97 103 105 90 86 85 86 89 104 104 92 77 69 87 77 62 63 58 60 74 70 53 49 47 42 52 50 49 44 43 42 43
214 207 211 213 202 195 188 175 184 153 150 122 116 112 105 106 97 90 94 96 98 101 89 87 96 65 59 65 59 49 64 61 47 37 40 49 44 40 42 45 41 40 43
223 229 227 208 209 197 192 186 188 164 159 147 147 132 130 145 142 111 120 114 106 97 85 87 70 61 53 55 53 52 46 43 33 33 33 43 40 39 37 36 40 39 42
260 241 250 239 209 204 199 195 188 173 162 162 164 146 149 146 175 118 117 127 133 105 91 94 75 54 49 48 37 36 44 38 35 33 28 29 37 37 33 34 33 32 35
278 253 256 252 216 208 207 204 194 183 167 183 189 173 174 224 228 210 171 149 129 118 112 111 87 38 43 30 26 19 18 27 29 29 30 26 27 26 31 28 30 32 31
280 235 268 250 225 213 209 209 202 191 168 192 131 253 249 243 247 246 247 241 208 162 167 131 55 101 30 10 22 17 16 14 14 18 26 22 23 23 20 13 16 25 31
285 290 262 263 226 214 213 211 210 204 208 180 181 208 197 241 263 212 231 222 228 211 126 109 47 249 241 327 329 357 7 0 358 1 7 11 6 7 8 5 5 12 20
259 281 277 261 222 218 215 215 213 212 211 196 190 185 198 202 197 224 232 229 230 244 211 235 270 289 286 278 296 325 343 338 1 12 354 352 2 356 358 1 2 357 358
302 297 297 263 226 217 214 216 217 213 212 206 194 199 214 199 208 221 221 230 242 248 240 227 242 257 249 244 259 290 308 327 312 354 353 351 342 351 353 6 6 2 349
281 270 279 280 241 225 220 220 221 220 216 212 208 209 228 224 226 228 229 243 252 266 236 239 256 262 264 272 273 279 290 302 308 335 352 339 332 341 346 3 12 1 0
228 230 257 265 288 227 226 224 226 227 224 220 216 221 227 236 239 237 241 247 249 245 246 244 251 259 261 267 278 286 293 296 303 315 326 334 327 321 316 6 16 348 351
234 249 252 260 279 256 231 230 230 227 227 224 219 255 235 233 244 246 248 253 256 255 254 258 260 261 260 264 272 280 289 293 296 294 292 323 325 313 304 278 327 344 346
225 234 246 255 253 236 246 235 230 221 218 221 222 231 250 236 245 244 247 251 253 254 256 259 264 262 269 270 275 276 277 282 292 290 280 275 283 313 328 295 279 312 326
232 236 242 238 239 220 211 238 247 244 233 223 222 231 239 242 246 252 256 255 256 263 263 263 260 263 267 268 270 272 274 268 272 273 270 267 279 304 294 290 308 306 303
Height
10978 10978 10978 10978 10976 10972 10967 10961 10953 10947 10939 10931 10924 10919 10916 10917 10919 10924 10927 10931 10935 10938 10942 10946 10951 10957 10961 10963 10965 10964 10964 10965 10966 10968 10970 10968 10965 10964 10961 10958 10954 10952 10947
10978 10978 10978 10978 10976 10973 10969 10962 10956 10949 10941 10934 10928 10925 10923 10923 10925 10928 10931 10934 10937 10940 10943 10947 10951 10955 10960 10964 10964 10963 10966 10967 10967 10967 10968 10967 10965 10963 10961 10957 10953 10949 10946
10978 10978 10978 10978 10977 10974 10970 10965 10959 10951 10945 10938 10933 10929 10929 10929 10930 10932 10934 10936 10938 10942 10945 10948 10950 10953 10957 10961 10962 10963 10965 10965 10966 10964 10965 10966 10962 10961 10957 10956 10953 10950 10945
10978 10978 10979 10979 10979 10977 10973 10967 10963 10956 10950 10943 10938 10934 10933 10933 10935 10937 10938 10940 10942 10944 10946 10949 10953 10957 10961 10962 10961 10962 10964 10964 10966 10963 10964 10963 10960 10959 10958 10957 10954 10950 10944
10978 10979 10981 10981 10981 10979 10975 10971 10967 10961 10955 10949 10943 10940 10937 10937 10939 10941 10942 10944 10946 10947 10948 10951 10955 10957 10959 10960 10961 10964 10965 10966 10968 10968 10966 10964 10962 10960 10959 10957 10953 10948 10942
10978 10979 10980 10982 10983 10981 10979 10975 10971 10967 10961 10955 10951 10947 10943 10942 10944 10945 10947 10948 10950 10951 10952 10954 10957 10959 10960 10962 10962 10963 10964 10966 10969 10968 10967 10965 10963 10961 10959 10956 10951 10947 10941
10978 10979 10981 10982 10984 10983 10981 10978 10976 10973 10967 10962 10958 10955 10953 10951 10950 10951 10952 10954 10955 10956 10958 10959 10961 10963 10963 10963 10962 10962 10963 10965 10966 10966 10965 10963 10962 10960 10958 10955 10951 10946 10940
10979 10980 10981 10982 10983 10983 10981 10979 10978 10978 10974 10969 10965 10962 10961 10959 10959 10959 10959 10959 10960 10962 10963 10964 10965 10965 10964 10963 10963 10963 10964 10966 10966 10967 10966 10963 10962 10960 10958 10955 10950 10945 10939
10977 10979 10981 10981 10980 10982 10982 10981 10979 10980 10980 10976 10972 10969 10967 10966 10965 10965 10966 10966 10966 10967 10968 10970 10970 10969 10967 10966 10965 10966 10969 10969 10969 10968 10966 10964 10962 10960 10958 10955 10950 10945 10941
10976 10979 10979 10979 10981 10981 10981 10982 10982 10981 10984 10982 10978 10975 10973 10972 10971 10971 10971 10972 10973 10974 10974 10975 10975 10974 10974 10973 10972 10972 10972 10973 10972 10971 10970 10967 10964 10962 10959 10956 10951 10947 10943
10973 10977 10979 10978 10981 10978 10980 10981 10985 10984 10986 10986 10984 10981 10979 10979 10978 10977 10977 10978 10978 10979 10980 10979 10980 10980 10979 10979 10978 10978 10977 10975 10975 10974 10971 10970 10967 10965 10961 10958 10954 10950 10945
10970 10973 10976 10977 10980 10979 10980 10983 10986 10987 10989 10989 10987 10986 10984 10983 10983 10984 10983 10984 10984 10984 10984 10984 10984 10984 10984 10983 10983 10982 10981 10980 10980 10978 10976 10974 10971 10967 10964 10961 10957 10953 10948
10966 10969 10972 10975 10977 10980 10982 10985 10987 10989 10990 10989 10989 10988 10988 10988 10988 10988 10988 10988 10988 10988 10988 10987 10987 10987 10986 10986 10986 10986 10985 10985 10983 10982 10980 10978 10973 10970 10967 10964 10961 10957 10952
10962 10964 10968 10972 10976 10978 10981 10984 10987 10988 10989 10989 10989 10990 10991 10991 10991 10992 10992 10991 10991 10992 10993 10991 10990 10989 10989 10989 10988 10988 10989 10989 10988 10987 10984 10980 10977 10975 10971 10968 10965 10961 10956
10961 10964 10965 10968 10973 10976 10978 10981 10985 10987 10988 10989 10989 10990 10992 10993 10993 10994 10994 10994 10994 10994 10994 10993 10993 10992 10992 10992 10992 10991 10991 10990 10989 10988 10986 10983 10981 10978 10976 10973 10969 10966 10961
10963 10965 10967 10968 10968 10971 10974 10977 10984 10986 10987 10989 10990 10991 10992 10993 10994 10994 10995 10995 10995 10995 10995 10995 10996 10995 10995 10995 10994 10995 10993 10992 10989 10988 10987 10985 10983 10981 10979 10975 10973 10970 10966
10956 10958 10962 10966 10965 10966 10969 10974 10981 10985 10986 10988 10990 10992 10992 10994 10995 10996 10996 10996 10996 10996 10996 10995 10996 10997 10997 10997 10997 10995 10993 10993 10991 10989 10987 10986 10985 10983 10981 10978 10975 10973 10969
10954 10952 10953 10961 10962 10963 10964 10971 10977 10982 10983 10984 10989 10992 10992 10994 10995 10996 10997 10997 10997 10996 10996 10997 10997 10999 11000 10998 10997 10995 10995 10994 10992 10991 10989 10988 10986 10985 10982 10979 10977 10974 10970
10958 10954 10949 10956 10960 10960 10961 10968 10975 10978 10981 10986 10988 10989 10988 10991 10996 10997 10996 10996 10997 10997 10996 10997 10998 10998 10998 10998 10995 10995 10996 10995 10995 10993 10991 10988 10987 10985 10983 10981 10978 10976 10973
10953 10953 10951 10952 10957 10959 10961 10964 10971 10976 10980 10984 10984 10984 10983 10984 10991 10995 10993 10994 10994 10996 10997 10997 10998 10999 11000 10997 10994 10995 10995 10995 10995 10993 10993 10991 10988 10985 10984 10981 10978 10975 10974
10953 10957 10956 10954 10955 10955 10956 10959 10965 10971 10977 10981 10981 10981 10974 10982 10986 10993 10992 10992 10993 10994 10996 10996 10997 10997 10997 10994 10993 10996 10995 10994 10993 10994 10995 10990 10987 10985 10983 10980 10978 10976 10973
10954 10947 10958 10956 10953 10954 10956 10959 10962 10968 10973 10980 10984 10984 10981 10984 10988 10990 10989 10989 10996 10997 10993 10992 10992 10994 10994 10993 10991 10992 10992 10993 10999 10993 10992 10989 10985 10984 10982 10982 10976 10978 10976
10935 10944 10956 10957 10952 10950 10954 10958 10961 10965 10971 10980 10986 10986 10986 10989 10989 10987 10985 10987 10990 10991 10988 10987 10987 10987 10989 10989 10988 10989 10989 10989 10990 10990 10989 10987 10984 10981 10981 10979 10981 10981 10977
10949 10950 10957 10954 10950 10949 10952 10955 10957 10961 10967 10976 10977 10976 10972 10979 10983 10980 10980 10981 10982 10982 10982 10982 10981 10980 10981 10984 10985 10984 10982 10982 10983 10985 10985 10985 10984 10986 10981 10979 10982 10979 10977
10954 10953 10951 10949 10949 10948 10946 10950 10952 10955 10960 10969 10966 10954 10961 10972 10974 10973 10974 10974 10973 10973 10973 10974 10976 10976 10977 10978 10979 10978 10978 10977 10978 10979 10980 10981 10980 10983 10982 10981 10976 10976 10974
10944 10944 10944 10944 10945 10946 10945 10947 10948 10952 10955 10961 10966 10963 10963 10967 10966 10965 10966 10966 10966 10965 10965 10967 10968 10970 10969 10971 10973 10974 10973 10974 10974 10974 10975 10977 10977 10983 10983 10977 10975 10974 10973